Track STARLINK-3645 now! 10-day predictions STARLINK-3645 is classified as:
1 51986U 22025AG 22186.58334491 -.00013515 00000-0 -83256-3 0 9990 2 51986 53.2188 308.5531 0001470 59.7689 121.3803 15.08842870 1304